• In Germany
  • List of Countries
  • For 7 days
  • Water Temperature
  • Satellite Maps
  • Weather Map
  • Weather Widgets
  • user-avatar
    Login

    Hourly Weather Igls

    Today, 25 April, Tuesday

    Time Temperature Precipitation Wind Pressure Humidity
    00:00 +6°C° 0 mm 2 mps 680 mmHg 95%
    01:00 +5°C° 0 mm 3 mps 680 mmHg 94%
    02:00 +5°C° 0 mm 3 mps 680 mmHg 95%
    03:00 +4°C° 0 mm 3 mps 679 mmHg 95%
    04:00 +5°C° 0 mm 2 mps 679 mmHg 95%
    05:00 +6°C° 0 mm 2 mps 679 mmHg 94%
    06:00 +7°C° 0 mm 2 mps 679 mmHg 92%
    07:00 +8°C° 0 mm 2 mps 679 mmHg 91%
    08:00 +9°C° 0.1 mm 2 mps 679 mmHg 88%
    09:00 +12°C° 0.1 mm 2 mps 679 mmHg 86%
    10:00 +13°C° 0.1 mm 2 mps 679 mmHg 83%
    11:00 +13°C° 0.6 mm 2 mps 679 mmHg 83%
    12:00 +14°C° 0.6 mm 2 mps 679 mmHg 83%
    13:00 +14°C° 0.6 mm 2 mps 679 mmHg 83%
    14:00 +13°C° 1.1 mm 2 mps 678 mmHg 86%
    15:00 +13°C° 1.1 mm 2 mps 678 mmHg 88%
    16:00 +12°C° 1.1 mm 2 mps 677 mmHg 90%
    17:00 +10°C° 1.2 mm 2 mps 677 mmHg 92%
    18:00 +9°C° 1.2 mm 2 mps 677 mmHg 94%
    19:00 +9°C° 1.2 mm 2 mps 677 mmHg 96%
    20:00 +8°C° 1.2 mm 2 mps 677 mmHg 97%
    21:00 +8°C° 1.2 mm 2 mps 677 mmHg 97%
    22:00 +7°C° 1.2 mm 2 mps 677 mmHg 98%
    23:00 +7°C° 0.5 mm 2 mps 677 mmHg 98%

    Tomorrow, 26 April, Wednesday

    Time Temperature Precipitation Wind Pressure Humidity
    00:00 +7°C° 0.5 mm 2 mps 676 mmHg 98%
    01:00 +7°C° 0.5 mm 2 mps 676 mmHg 98%
    02:00 +6°C° 0.4 mm 2 mps 676 mmHg 98%
    03:00 +6°C° 0.4 mm 2 mps 676 mmHg 97%
    04:00 +6°C° 0.4 mm 2 mps 676 mmHg 97%
    05:00 +6°C° 0.6 mm 2 mps 676 mmHg 97%
    06:00 +6°C° 0.6 mm 2 mps 676 mmHg 97%
    07:00 +6°C° 0.6 mm 2 mps 676 mmHg 97%
    08:00 +6°C° 1 mm 2 mps 676 mmHg 96%
    09:00 +6°C° 1 mm 2 mps 676 mmHg 96%
    10:00 +7°C° 1 mm 2 mps 676 mmHg 95%
    11:00 +7°C° 1.3 mm 2 mps 676 mmHg 95%
    12:00 +7°C° 1.3 mm 2 mps 677 mmHg 95%
    13:00 +7°C° 1.3 mm 2 mps 677 mmHg 95%
    14:00 +7°C° 1.7 mm 2 mps 677 mmHg 96%
    15:00 +8°C° 1.7 mm 1 mps 677 mmHg 96%
    16:00 +8°C° 1.7 mm 1 mps 676 mmHg 97%
    17:00 +7°C° 2 mm 1 mps 677 mmHg 97%
    18:00 +6°C° 2 mm 1 mps 677 mmHg 98%
    19:00 +6°C° 2 mm 1 mps 677 mmHg 98%
    20:00 +5°C° 2 mm 1 mps 677 mmHg 98%
    21:00 +5°C° 2 mm 1 mps 677 mmHg 98%
    22:00 +5°C° 2 mm 1 mps 677 mmHg 98%
    23:00 +4°C° 2.2 mm 1 mps 677 mmHg 98%

    Day after tomorrow, 27 April, Thursday

    Time Temperature Precipitation Wind Pressure Humidity
    00:00 +4°C° 2.2 mm 1 mps 677 mmHg 98%
    01:00 +4°C° 2.2 mm 1 mps 677 mmHg 98%
    02:00 +3°C° 0.5 mm 1 mps 677 mmHg 98%
    03:00 +3°C° 0.5 mm 1 mps 677 mmHg 98%
    04:00 +3°C° 0.5 mm 1 mps 677 mmHg 97%
    05:00 +4°C° 0.3 mm 1 mps 677 mmHg 97%
    06:00 +3°C° 0.3 mm 0 mps 678 mmHg 97%
    07:00 +4°C° 0.3 mm 0 mps 678 mmHg 98%
    08:00 +5°C° 0.4 mm 1 mps 678 mmHg 97%
    09:00 +6°C° 0.4 mm 1 mps 678 mmHg 97%
    10:00 +7°C° 0.4 mm 1 mps 678 mmHg 97%
    11:00 +7°C° 1.1 mm 1 mps 678 mmHg 97%
    12:00 +7°C° 1.1 mm 1 mps 678 mmHg 97%
    13:00 +7°C° 1.1 mm 1 mps 678 mmHg 97%
    14:00 +6°C° 1.6 mm 2 mps 678 mmHg 97%
    15:00 +6°C° 1.6 mm 2 mps 678 mmHg 97%
    16:00 +5°C° 1.6 mm 2 mps 678 mmHg 97%
    17:00 +5°C° 1.6 mm 2 mps 678 mmHg 98%
    18:00 +4°C° 1.6 mm 2 mps 678 mmHg 98%
    19:00 +5°C° 1.6 mm 1 mps 678 mmHg 98%
    20:00 +5°C° 1.6 mm 1 mps 678 mmHg 98%
    21:00 +3°C° 1.6 mm 2 mps 678 mmHg 98%
    22:00 +3°C° 1.6 mm 2 mps 678 mmHg 98%
    23:00 +4°C° 1.3 mm 1 mps 678 mmHg 98%

    28 April, Friday

    Time Temperature Precipitation Wind Pressure Humidity
    00:00 +4°C° 1.3 mm 1 mps 677 mmHg 98%
    01:00 +4°C° 1.3 mm 1 mps 677 mmHg 98%
    02:00 +3°C° 1.1 mm 1 mps 677 mmHg 98%
    03:00 +3°C° 1.1 mm 1 mps 677 mmHg 98%
    04:00 +3°C° 1.1 mm 1 mps 676 mmHg 98%
    05:00 +2°C° 1.4 mm 2 mps 676 mmHg 98%
    06:00 +2°C° 1.4 mm 2 mps 676 mmHg 98%
    07:00 +2°C° 1.4 mm 2 mps 676 mmHg 98%
    08:00 +2°C° 1.5 mm 2 mps 677 mmHg 98%
    09:00 +2°C° 1.5 mm 2 mps 677 mmHg 98%
    10:00 +3°C° 1.5 mm 2 mps 677 mmHg 97%
    11:00 +3°C° 1.2 mm 2 mps 677 mmHg 97%
    12:00 +3°C° 1.2 mm 2 mps 678 mmHg 97%
    13:00 +3°C° 1.2 mm 2 mps 678 mmHg 97%
    14:00 +3°C° 0.7 mm 2 mps 678 mmHg 97%
    15:00 +3°C° 0.7 mm 2 mps 678 mmHg 97%
    16:00 +3°C° 0.7 mm 2 mps 679 mmHg 97%
    17:00 +2°C° 0.3 mm 2 mps 679 mmHg 97%
    18:00 +2°C° 0.3 mm 2 mps 679 mmHg 97%
    19:00 +1°C° 0.3 mm 2 mps 680 mmHg 97%
    20:00 -1°C° 0.1 mm 2 mps 680 mmHg 97%
    21:00 -1°C° 0.1 mm 2 mps 681 mmHg 96%
    22:00 -2°C° 0.1 mm 2 mps 681 mmHg 96%
    23:00 -3°C° 0.1 mm 2 mps 681 mmHg 96%

    29 April, Saturday

    Time Temperature Precipitation Wind Pressure Humidity
    00:00 -4°C° 0.1 mm 2 mps 681 mmHg 95%
    01:00 -4°C° 0.1 mm 2 mps 681 mmHg 95%
    02:00 -6°C° 0 mm 2 mps 681 mmHg 95%
    03:00 -7°C° 0 mm 2 mps 681 mmHg 95%
    04:00 -8°C° 0 mm 2 mps 680 mmHg 95%
    05:00 -4°C° 0 mm 1 mps 681 mmHg 95%
    06:00 -1°C° 0 mm 1 mps 682 mmHg 94%
    07:00 +1°C° 0 mm 1 mps 682 mmHg 94%
    08:00 +3°C° 0 mm 1 mps 682 mmHg 94%
    09:00 +3°C° 0 mm 0 mps 682 mmHg 93%
    10:00 +5°C° 0 mm 0 mps 682 mmHg 93%
    11:00 +6°C° 0 mm 0 mps 682 mmHg 93%
    12:00 +7°C° 0 mm 1 mps 682 mmHg 93%
    13:00 +8°C° 0 mm 1 mps 682 mmHg 94%
    14:00 +8°C° 0 mm 1 mps 681 mmHg 93%
    15:00 +8°C° 0 mm 1 mps 681 mmHg 93%
    16:00 +8°C° 0 mm 1 mps 681 mmHg 93%
    17:00 +7°C° 0 mm 1 mps 681 mmHg 94%
    18:00 +6°C° 0 mm 1 mps 681 mmHg 95%
    19:00 +5°C° 0 mm 1 mps 681 mmHg 96%
    20:00 +4°C° 0 mm 1 mps 681 mmHg 96%
    21:00 +2°C° 0 mm 2 mps 681 mmHg 96%
    22:00 +1°C° 0 mm 2 mps 681 mmHg 96%
    23:00 +1°C° 0 mm 2 mps 681 mmHg 96%

    30 April, Sunday

    Time Temperature Precipitation Wind Pressure Humidity
    00:00 +1°C° 0 mm 2 mps 681 mmHg 96%
    01:00 +1°C° 0 mm 2 mps 681 mmHg 95%
    02:00 +1°C° 0 mm 2 mps 681 mmHg 95%
    03:00 +1°C° 0 mm 2 mps 681 mmHg 95%
    04:00 +1°C° 0 mm 2 mps 681 mmHg 95%
    05:00 +2°C° 0 mm 2 mps 681 mmHg 95%
    06:00 +3°C° 0 mm 2 mps 681 mmHg 94%
    07:00 +4°C° 0 mm 2 mps 681 mmHg 94%
    08:00 +6°C° 0 mm 2 mps 681 mmHg 93%
    09:00 +7°C° 0 mm 2 mps 680 mmHg 92%
    10:00 +8°C° 0 mm 2 mps 680 mmHg 92%
    11:00 +8°C° 0 mm 2 mps 680 mmHg 91%
    12:00 +9°C° 0 mm 2 mps 679 mmHg 90%
    13:00 +9°C° 0 mm 2 mps 679 mmHg 90%
    14:00 +10°C° 0 mm 2 mps 679 mmHg 89%
    15:00 +10°C° 0 mm 2 mps 679 mmHg 89%
    16:00 +10°C° 0 mm 2 mps 678 mmHg 89%
    17:00 +9°C° 0 mm 2 mps 678 mmHg 91%
    18:00 +8°C° 0 mm 2 mps 678 mmHg 93%
    19:00 +7°C° 0 mm 2 mps 678 mmHg 94%
    20:00 +6°C° 0 mm 2 mps 678 mmHg 95%
    21:00 +6°C° 0 mm 2 mps 678 mmHg 95%
    22:00 +5°C° 0 mm 2 mps 678 mmHg 95%
    23:00 +5°C° 0 mm 2 mps 678 mmHg 95%
    Show more